Tracking 28794 objects as of 19-Apr-2024
HD Live streaming from Space Station
objects crossing your sky now

ORBCOMM FM 106

Track ORBCOMM FM 106 now!
10-day predictions
ORBCOMM FM 106 is classified as:


NORAD ID: 40088
Int'l Code: 2014-040C
Perigee: 665.1 km
Apogee: 691.2 km
Inclination: 47.1 °
Period: 98.2 minutes
Semi major axis: 7049 km
RCS: Unknown
Launch date: July 14, 2014
Source: United States (US)
Launch site: AIR FORCE EASTERN TEST RANGE (AFETR)
Your satellite tracking list
Your tracking list is empty




NASA's NSSDC Master Catalog

Two Line Element Set (TLE):
1 40088U 14040C   24110.28300518  .00003818  00000-0  70675-3 0  9992
2 40088  47.0602  71.5460 0018500 261.1236  98.7559 14.66886340521185
Source of the keplerian elements: AFSPC